| time (UTC) | temp F | wind direction | speed MPH | gust MPH | rain 1hr in | rain 24hr in | rain mn in | humidity % | barometer mb |
| 20260901101551 | 70 | 0 | 0.0 | 0.0 | 0.00 | 0.06 | 0.00 | 100 | 1013.1 |
| 20260901101034 | 70 | 0 | 0.0 | 0.0 | 0.00 | 0.06 | 0.00 | 100 | 1013.2 |
| 20260901100534 | 71 | 0 | 0.0 | 0.0 | 0.00 | 0.06 | 0.00 | 100 | 1013.3 |
| 20260901100056 | 71 | 0 | 0.0 | 0.0 | 0.00 | 0.06 | 0.00 | 100 | 1013.2 |
| 20260901095534 | 71 | 0 | 0.0 | 0.0 | 0.00 | 0.08 | 0.00 | 100 | 1013.2 |
| 20260901095034 | 71 | 0 | 0.0 | 0.0 | 0.00 | 0.08 | 0.00 | 100 | 1013.1 |
| 20260901094553 | 71 | 0 | 0.0 | 0.0 | 0.00 | 0.08 | 0.00 | 100 | 1013.2 |
| 20260901094038 | 71 | 0 | 0.0 | 0.0 | 0.00 | 0.08 | 0.00 | 100 | 1013.1 |
| 20260901093535 | 71 | 0 | 0.0 | 0.0 | 0.00 | 0.08 | 0.00 | 100 | 1013.1 |
| 20260901093107 | 71 | 0 | 0.0 | 0.0 | 0.00 | 0.08 | 0.00 | 100 | 1013.3 |
| 20260901092540 | 71 | 0 | 0.0 | 0.0 | 0.00 | 0.08 | 0.00 | 100 | 1013.2 |
| 20260901092037 | 71 | 0 | 0.0 | 0.0 | 0.00 | 0.08 | 0.00 | 100 | 1013.2 |
| 20260901091601 | 71 | 0 | 0.0 | 0.0 | 0.00 | 0.08 | 0.00 | 100 | 1013.3 |
| 20260901091041 | 71 | 0 | 0.0 | 0.0 | 0.00 | 0.08 | 0.00 | 100 | 1013.3 |
| 20260901090536 | 71 | 0 | 0.0 | 0.0 | 0.00 | 0.08 | 0.00 | 100 | 1013.2 |
| 20260901090056 | 70 | 0 | 0.0 | 0.0 | 0.00 | 0.08 | 0.00 | 100 | 1013.2 |
| 20260901085534 | 70 | 0 | 0.0 | 0.0 | 0.00 | 0.08 | 0.00 | 100 | 1013.1 |
| 20260901085034 | 70 | 0 | 0.0 | 0.0 | 0.00 | 0.08 | 0.00 | 100 | 1013.2 |
| 20260901084548 | 70 | 0 | 0.0 | 0.0 | 0.00 | 0.08 | 0.00 | 100 | 1013.3 |
| 20260901084038 | 70 | 0 | 0.0 | 0.0 | 0.00 | 0.08 | 0.00 | 100 | 1013.2 |
| 20260901083535 | 70 | 0 | 0.0 | 0.0 | 0.00 | 0.08 | 0.00 | 100 | 1013.3 |
| 20260901083100 | 70 | 0 | 0.0 | 0.0 | 0.00 | 0.08 | 0.00 | 100 | 1013.2 |
| 20260901082533 | 70 | 0 | 0.0 | 0.0 | 0.00 | 0.08 | 0.00 | 100 | 1013.1 |
| 20260901082036 | 70 | 0 | 0.0 | 0.0 | 0.00 | 0.08 | 0.00 | 99 | 1013.2 |
| 20260901081554 | 70 | 0 | 0.0 | 0.0 | 0.00 | 0.08 | 0.00 | 99 | 1013.0 |
| 20260901081037 | 70 | 0 | 0.0 | 0.0 | 0.00 | 0.08 | 0.00 | 100 | 1013.0 |
| 20260901080537 | 70 | 0 | 0.0 | 0.0 | 0.00 | 0.08 | 0.00 | 100 | 1013.1 |
| 20260901080052 | 70 | 0 | 0.0 | 0.0 | 0.00 | 0.08 | 0.00 | 99 | 1013.1 |
| 20260901075535 | 71 | 0 | 0.0 | 0.0 | 0.00 | 0.08 | 0.00 | 99 | 1013.0 |
| 20260901075034 | 71 | 0 | 0.0 | 0.0 | 0.00 | 0.08 | 0.00 | 99 | 1013.2 |
| 20260901074558 | 71 | 0 | 0.0 | 0.0 | 0.00 | 0.08 | 0.00 | 99 | 1013.1 |
| 20260901074040 | 71 | 0 | 0.0 | 0.0 | 0.00 | 0.08 | 0.00 | 99 | 1013.0 |
| 20260901073538 | 71 | 0 | 0.0 | 0.0 | 0.00 | 0.08 | 0.00 | 99 | 1013.1 |
| 20260901073058 | 71 | 0 | 0.0 | 0.0 | 0.00 | 0.08 | 0.00 | 99 | 1013.1 |
| 20260901072538 | 72 | 0 | 0.0 | 0.0 | 0.00 | 0.08 | 0.00 | 99 | 1013.0 |
| 20260901072035 | 72 | 0 | 0.0 | 0.0 | 0.00 | 0.08 | 0.00 | 99 | 1013.1 |
| 20260901071600 | 72 | 0 | 0.0 | 0.0 | 0.00 | 0.08 | 0.00 | 99 | 1013.1 |
| 20260901071034 | 72 | 0 | 0.0 | 0.0 | 0.00 | 0.08 | 0.00 | 99 | 1013.0 |
| 20260901070536 | 73 | 0 | 0.0 | 0.0 | 0.00 | 0.08 | 0.00 | 99 | 1012.9 |
| 20260901070103 | 73 | 0 | 0.0 | 0.0 | 0.00 | 0.08 | 0.00 | 100 | 1013.0 |
| 20260901065537 | 73 | 0 | 0.0 | 0.0 | 0.00 | 0.08 | 0.00 | 100 | 1012.9 |
| 20260901065034 | 73 | 0 | 0.0 | 3.0 | 0.00 | 0.08 | 0.00 | 100 | 1012.9 |
| 20260901064554 | 73 | 0 | 0.0 | 3.0 | 0.00 | 0.08 | 0.00 | 100 | 1013.0 |
| 20260901064036 | 73 | 200 | 0.0 | 3.0 | 0.00 | 0.08 | 0.00 | 100 | 1013.0 |
| 20260901063536 | 73 | 0 | 0.0 | 4.0 | 0.00 | 0.08 | 0.00 | 100 | 1013.0 |
| 20260901063051 | 73 | 200 | 1.0 | 4.0 | 0.00 | 0.08 | 0.00 | 100 | 1013.0 |
| 20260901062538 | 73 | 200 | 1.0 | 4.0 | 0.00 | 0.08 | 0.00 | 100 | 1012.9 |
| 20260901062037 | 73 | 207 | 0.0 | 3.0 | 0.00 | 0.08 | 0.00 | 100 | 1013.0 |
| 20260901061549 | 72 | 0 | 0.0 | 3.0 | 0.00 | 0.08 | 0.00 | 100 | 1013.1 |
| 20260901061037 | 72 | 206 | 1.0 | 3.0 | 0.00 | 0.08 | 0.00 | 100 | 1013.2 |
| 20260901060540 | 72 | 205 | 1.0 | 4.0 | 0.00 | 0.08 | 0.00 | 100 | 1013.0 |
| 20260901060101 | 72 | 202 | 2.0 | 4.0 | 0.00 | 0.08 | 0.00 | 100 | 1013.1 |
| 20260901055534 | 71 | 200 | 0.0 | 3.0 | 0.00 | 0.08 | 0.00 | 100 | 1013.2 |
| 20260901055038 | 71 | 200 | 0.0 | 3.0 | 0.00 | 0.08 | 0.00 | 100 | 1013.1 |
| 20260901054554 | 70 | 201 | 0.0 | 2.0 | 0.00 | 0.08 | 0.00 | 100 | 1012.9 |
| 20260901054035 | 69 | 0 | 0.0 | 0.0 | 0.00 | 0.08 | 0.00 | 99 | 1013.0 |
| 20260901053537 | 69 | 0 | 0.0 | 0.0 | 0.00 | 0.08 | 0.00 | 99 | 1013.1 |
| 20260901053051 | 70 | 0 | 0.0 | 0.0 | 0.00 | 0.08 | 0.00 | 99 | 1013.0 |
| 20260901052534 | 70 | 0 | 0.0 | 0.0 | 0.00 | 0.08 | 0.00 | 99 | 1013.1 |
| 20260901052037 | 70 | 0 | 0.0 | 0.0 | 0.00 | 0.08 | 0.00 | 99 | 1013.1 |
| 20260901051609 | 70 | 0 | 0.0 | 0.0 | 0.00 | 0.08 | 0.00 | 99 | 1013.0 |
| 20260901051037 | 70 | 0 | 0.0 | 0.0 | 0.00 | 0.08 | 0.00 | 99 | 1013.0 |
| 20260901050538 | 70 | 0 | 0.0 | 0.0 | 0.00 | 0.08 | 0.00 | 99 | 1013.0 |
| 20260901050055 | 70 | 0 | 0.0 | 0.0 | 0.00 | 0.08 | 0.00 | 99 | 1013.1 |
| 20260901045534 | 70 | 0 | 0.0 | 0.0 | 0.00 | 0.08 | 0.08 | 99 | 1013.2 |
| 20260901045033 | 70 | 0 | 0.0 | 0.0 | 0.00 | 0.08 | 0.08 | 99 | 1013.1 |
| 20260901044551 | 70 | 0 | 0.0 | 0.0 | 0.00 | 0.08 | 0.08 | 99 | 1013.2 |
| 20260901044037 | 70 | 0 | 0.0 | 0.0 | 0.00 | 0.08 | 0.08 | 99 | 1013.1 |
| 20260901043537 | 70 | 0 | 0.0 | 0.0 | 0.00 | 0.08 | 0.08 | 99 | 1013.1 |
| 20260901043053 | 70 | 0 | 0.0 | 0.0 | 0.00 | 0.08 | 0.08 | 99 | 1013.2 |
| 20260901042540 | 70 | 0 | 0.0 | 0.0 | 0.00 | 0.08 | 0.08 | 99 | 1013.2 |
| 20260901042034 | 70 | 0 | 0.0 | 0.0 | 0.00 | 0.08 | 0.08 | 98 | 1013.0 |
| 20260901041608 | 71 | 0 | 0.0 | 0.0 | 0.00 | 0.08 | 0.08 | 98 | 1013.0 |
| 20260901041038 | 71 | 0 | 0.0 | 0.0 | 0.00 | 0.08 | 0.08 | 98 | 1013.0 |
| 20260901040536 | 71 | 0 | 0.0 | 0.0 | 0.00 | 0.08 | 0.08 | 98 | 1013.0 |
| 20260901040109 | 71 | 0 | 0.0 | 0.0 | 0.00 | 0.08 | 0.08 | 98 | 1013.1 |
| 20260901035537 | 72 | 0 | 0.0 | 0.0 | 0.00 | 0.08 | 0.08 | 98 | 1013.1 |
| 20260901035035 | 72 | 0 | 0.0 | 0.0 | 0.00 | 0.08 | 0.08 | 98 | 1013.2 |
| 20260901034555 | 72 | 0 | 0.0 | 0.0 | 0.00 | 0.08 | 0.08 | 98 | 1013.2 |
| 20260901034038 | 72 | 0 | 0.0 | 0.0 | 0.00 | 0.08 | 0.08 | 98 | 1013.2 |
| 20260901033538 | 72 | 0 | 0.0 | 0.0 | 0.00 | 0.08 | 0.08 | 97 | 1013.3 |
| 20260901033051 | 72 | 0 | 0.0 | 0.0 | 0.00 | 0.08 | 0.08 | 98 | 1013.4 |
| 20260901032536 | 72 | 0 | 0.0 | 0.0 | 0.00 | 0.08 | 0.08 | 97 | 1013.3 |
| 20260901032038 | 72 | 0 | 0.0 | 0.0 | 0.00 | 0.08 | 0.08 | 97 | 1013.4 |
| 20260901031556 | 72 | 0 | 0.0 | 0.0 | 0.00 | 0.08 | 0.08 | 97 | 1013.3 |
| 20260901031040 | 73 | 0 | 0.0 | 0.0 | 0.00 | 0.08 | 0.08 | 97 | 1013.3 |
| 20260901030541 | 73 | 0 | 0.0 | 0.0 | 0.00 | 0.08 | 0.08 | 97 | 1013.4 |
| 20260901030054 | 73 | 0 | 0.0 | 0.0 | 0.00 | 0.08 | 0.08 | 97 | 1013.2 |
| 20260901025538 | 73 | 0 | 0.0 | 0.0 | 0.00 | 0.08 | 0.08 | 97 | 1013.2 |
| 20260901025040 | 73 | 0 | 0.0 | 0.0 | 0.00 | 0.08 | 0.08 | 97 | 1013.3 |
| 20260901024553 | 74 | 0 | 0.0 | 0.0 | 0.00 | 0.08 | 0.08 | 96 | 1013.3 |
| 20260901024035 | 74 | 0 | 0.0 | 0.0 | 0.00 | 0.08 | 0.08 | 96 | 1013.3 |
| 20260901023535 | 74 | 0 | 0.0 | 0.0 | 0.00 | 0.08 | 0.08 | 96 | 1013.3 |
| 20260901023054 | 74 | 0 | 0.0 | 0.0 | 0.00 | 0.08 | 0.08 | 95 | 1013.3 |
| 20260901022536 | 75 | 0 | 0.0 | 0.0 | 0.00 | 0.08 | 0.08 | 95 | 1013.3 |
| 20260901022034 | 75 | 0 | 0.0 | 0.0 | 0.00 | 0.08 | 0.08 | 95 | 1013.4 |
| 20260901021555 | 75 | 0 | 0.0 | 0.0 | 0.00 | 0.08 | 0.08 | 94 | 1013.3 |
| 20260901021038 | 75 | 0 | 0.0 | 0.0 | 0.00 | 0.08 | 0.08 | 93 | 1013.2 |
| 20260901020537 | 76 | 0 | 0.0 | 0.0 | 0.00 | 0.08 | 0.08 | 92 | 1013.1 |
| 20260901020057 | 77 | 0 | 0.0 | 1.0 | 0.00 | 0.08 | 0.08 | 93 | 1013.2 |
| 20260901015538 | 77 | 0 | 0.0 | 2.0 | 0.00 | 0.08 | 0.08 | 92 | 1013.1 |
| 20260901015033 | 77 | 0 | 0.0 | 3.0 | 0.00 | 0.08 | 0.08 | 92 | 1013.0 |
| 20260901014554 | 77 | 201 | 0.0 | 3.0 | 0.00 | 0.08 | 0.08 | 92 | 1013.0 |
| 20260901014034 | 77 | 202 | 1.0 | 3.0 | 0.00 | 0.08 | 0.08 | 92 | 1012.8 |
| 20260901013536 | 77 | 202 | 2.0 | 3.0 | 0.00 | 0.08 | 0.08 | 92 | 1012.7 |
| 20260901013107 | 77 | 202 | 1.0 | 3.0 | 0.00 | 0.08 | 0.08 | 92 | 1012.7 |
| 20260901012537 | 77 | 202 | 2.0 | 3.0 | 0.00 | 0.08 | 0.08 | 92 | 1012.7 |
| 20260901012036 | 78 | 202 | 1.0 | 3.0 | 0.00 | 0.08 | 0.08 | 92 | 1012.6 |
| 20260901011554 | 78 | 0 | 0.0 | 3.0 | 0.00 | 0.08 | 0.08 | 92 | 1012.5 |
| 20260901011034 | 78 | 202 | 1.0 | 3.0 | 0.00 | 0.08 | 0.08 | 92 | 1012.5 |
| 20260901010537 | 78 | 202 | 1.0 | 3.0 | 0.00 | 0.08 | 0.08 | 91 | 1012.5 |
| 20260901010105 | 78 | 203 | 1.0 | 3.0 | 0.00 | 0.08 | 0.08 | 91 | 1012.5 |
| 20260901005535 | 79 | 203 | 1.0 | 3.0 | 0.00 | 0.08 | 0.08 | 91 | 1012.3 |
| 20260901005036 | 79 | 202 | 0.0 | 3.0 | 0.00 | 0.08 | 0.08 | 90 | 1012.3 |
| 20260901004559 | 79 | 0 | 0.0 | 0.0 | 0.00 | 0.08 | 0.08 | 90 | 1012.4 |
| 20260901004040 | 79 | 0 | 0.0 | 0.0 | 0.00 | 0.08 | 0.08 | 90 | 1012.4 |
| 20260901003623 | 80 | 0 | 0.0 | 0.0 | 0.00 | 0.08 | 0.08 | 89 | 1012.4 |
| 20260901003052 | 80 | 0 | 0.0 | 0.0 | 0.00 | 0.08 | 0.08 | 89 | 1012.3 |
| 20260901002540 | 80 | 0 | 0.0 | 0.0 | 0.00 | 0.08 | 0.08 | 89 | 1012.6 |
| 20260901002037 | 80 | 0 | 0.0 | 2.0 | 0.00 | 0.08 | 0.08 | 89 | 1012.5 |
| 20260901001548 | 80 | 0 | 0.0 | 2.0 | 0.00 | 0.08 | 0.08 | 88 | 1012.4 |
| 20260901001036 | 80 | 204 | 0.0 | 3.0 | 0.00 | 0.08 | 0.08 | 88 | 1012.5 |
| 20260901000533 | 81 | 204 | 0.0 | 3.0 | 0.00 | 0.08 | 0.08 | 87 | 1012.5 |
| 20260901000104 | 81 | 204 | 0.0 | 2.0 | 0.00 | 0.08 | 0.08 | 87 | 1012.2 |
| 20260831235540 | 81 | 0 | 0.0 | 2.0 | 0.00 | 0.08 | 0.08 | 86 | 1012.4 |
| 20260831235037 | 81 | 204 | 0.0 | 3.0 | 0.00 | 0.08 | 0.08 | 86 | 1012.3 |
| 20260831234555 | 81 | 0 | 0.0 | 3.0 | 0.00 | 0.08 | 0.08 | 86 | 1012.1 |
| 20260831234037 | 81 | 203 | 0.0 | 4.0 | 0.00 | 0.08 | 0.08 | 85 | 1012.1 |
| 20260831233537 | 82 | 204 | 1.0 | 10.0 | 0.00 | 0.08 | 0.08 | 85 | 1012.1 |
| 20260831233053 | 82 | 0 | 1.0 | 10.0 | 0.00 | 0.08 | 0.08 | 85 | 1012.1 |
| 20260831232536 | 82 | 223 | 1.0 | 6.0 | 0.00 | 0.08 | 0.08 | 84 | 1012.0 |
| 20260831232037 | 82 | 208 | 2.0 | 6.0 | 0.00 | 0.08 | 0.08 | 84 | 1011.9 |
| 20260831231600 | 82 | 198 | 2.0 | 6.0 | 0.00 | 0.08 | 0.08 | 84 | 1011.9 |
| 20260831231036 | 82 | 202 | 3.0 | 6.0 | 0.00 | 0.08 | 0.08 | 84 | 1012.0 |
| 20260831230538 | 82 | 0 | 1.0 | 4.0 | 0.00 | 0.08 | 0.08 | 84 | 1011.9 |
| 20260831230058 | 82 | 213 | 1.0 | 6.0 | 0.00 | 0.08 | 0.08 | 83 | 1011.9 |
| 20260831225536 | 82 | 205 | 1.0 | 6.0 | 0.00 | 0.08 | 0.08 | 83 | 1012.0 |
| 20260831225038 | 82 | 196 | 2.0 | 5.0 | 0.00 | 0.08 | 0.08 | 83 | 1011.9 |
| 20260831224554 | 83 | 208 | 2.0 | 8.0 | 0.00 | 0.08 | 0.08 | 82 | 1012.0 |
| 20260831224036 | 83 | 217 | 2.0 | 8.0 | 0.00 | 0.08 | 0.08 | 81 | 1011.9 |
| 20260831223539 | 83 | 271 | 2.0 | 10.0 | 0.00 | 0.08 | 0.08 | 82 | 1011.8 |
| 20260831223058 | 83 | 222 | 4.0 | 10.0 | 0.00 | 0.08 | 0.08 | 81 | 1011.7 |
| 20260831222536 | 83 | 225 | 4.0 | 8.0 | 0.00 | 0.08 | 0.08 | 81 | 1011.6 |
| 20260831222036 | 83 | 203 | 3.0 | 12.0 | 0.00 | 0.08 | 0.08 | 82 | 1011.7 |
| 20260831221554 | 83 | 0 | 3.0 | 12.0 | 0.00 | 0.08 | 0.08 | 82 | 1011.7 |
| 20260831221036 | 83 | 211 | 5.0 | 12.0 | 0.00 | 0.08 | 0.08 | 81 | 1011.7 |
| 20260831220536 | 83 | 216 | 3.0 | 8.0 | 0.00 | 0.08 | 0.08 | 81 | 1011.8 |
| 20260831220053 | 83 | 205 | 3.0 | 9.0 | 0.00 | 0.08 | 0.08 | 82 | 1012.0 |
| 20260831215536 | 83 | 205 | 4.0 | 12.0 | 0.00 | 0.09 | 0.08 | 82 | 1012.0 |
| 20260831215036 | 83 | 256 | 5.0 | 12.0 | 0.00 | 0.09 | 0.08 | 82 | 1011.9 |
| 20260831214615 | 83 | 208 | 5.0 | 12.0 | 0.00 | 0.09 | 0.08 | 81 | 1011.9 |
| 20260831214037 | 83 | 208 | 5.0 | 11.0 | 0.00 | 0.09 | 0.08 | 83 | 1011.8 |
| 20260831213534 | 83 | 209 | 5.0 | 11.0 | 0.00 | 0.09 | 0.08 | 83 | 1011.9 |
| 20260831213057 | 82 | 219 | 4.0 | 10.0 | 0.00 | 0.09 | 0.08 | 82 | 1012.0 |
| 20260831212537 | 83 | 194 | 3.0 | 8.0 | 0.00 | 0.09 | 0.08 | 83 | 1011.9 |
| 20260831212040 | 83 | 251 | 3.0 | 8.0 | 0.00 | 0.09 | 0.08 | 83 | 1012.0 |
| 20260831211555 | 83 | 202 | 3.0 | 7.0 | 0.00 | 0.09 | 0.08 | 84 | 1012.1 |
| 20260831211036 | 83 | 198 | 2.0 | 6.0 | 0.00 | 0.09 | 0.08 | 85 | 1012.1 |
| 20260831210534 | 82 | 207 | 2.0 | 6.0 | 0.00 | 0.09 | 0.08 | 85 | 1012.0 |
| 20260831210050 | 82 | 275 | 2.0 | 4.0 | 0.00 | 0.09 | 0.08 | 85 | 1012.1 |
| 20260831205536 | 82 | 222 | 1.0 | 3.0 | 0.00 | 0.13 | 0.08 | 85 | 1011.8 |
| 20260831205033 | 82 | 0 | 1.0 | 3.0 | 0.00 | 0.13 | 0.08 | 86 | 1011.6 |
| 20260831204554 | 82 | 0 | 0.0 | 3.0 | 0.00 | 0.13 | 0.08 | 86 | 1011.4 |
| 20260831204037 | 81 | 0 | 0.0 | 2.0 | 0.00 | 0.13 | 0.08 | 86 | 1011.2 |
| 20260831203536 | 81 | 0 | 0.0 | 3.0 | 0.00 | 0.13 | 0.08 | 86 | 1011.3 |
| 20260831203054 | 81 | 0 | 0.0 | 3.0 | 0.00 | 0.13 | 0.08 | 85 | 1011.3 |
| 20260831202536 | 81 | 0 | 0.0 | 3.0 | 0.00 | 0.13 | 0.08 | 84 | 1011.1 |
| 20260831202040 | 81 | 0 | 0.0 | 4.0 | 0.00 | 0.13 | 0.08 | 84 | 1011.2 |
| 20260831201554 | 81 | 183 | 0.0 | 6.0 | 0.00 | 0.13 | 0.08 | 84 | 1011.4 |
| 20260831201041 | 81 | 0 | 1.0 | 6.0 | 0.00 | 0.13 | 0.08 | 84 | 1011.7 |
| 20260831200536 | 81 | 200 | 1.0 | 5.0 | 0.00 | 0.13 | 0.08 | 83 | 1011.9 |
| 20260831200057 | 81 | 249 | 2.0 | 7.0 | 0.00 | 0.13 | 0.08 | 84 | 1012.0 |
| 20260831195537 | 81 | 0 | 2.0 | 7.0 | 0.00 | 0.15 | 0.08 | 84 | 1012.1 |
| 20260831195039 | 81 | 0 | 2.0 | 5.0 | 0.00 | 0.15 | 0.08 | 83 | 1012.0 |
| 20260831194620 | 81 | 212 | 1.0 | 5.0 | 0.00 | 0.15 | 0.08 | 83 | 1011.6 |
| 20260831194038 | 81 | 185 | 3.0 | 5.0 | 0.00 | 0.15 | 0.08 | 82 | 1011.7 |
| 20260831193534 | 82 | 200 | 1.0 | 5.0 | 0.00 | 0.15 | 0.08 | 81 | 1011.8 |
| 20260831193052 | 82 | 200 | 1.0 | 10.0 | 0.00 | 0.15 | 0.08 | 80 | 1011.8 |
| 20260831192534 | 82 | 0 | 1.0 | 10.0 | 0.00 | 0.15 | 0.08 | 80 | 1011.8 |
| 20260831192033 | 83 | 212 | 3.0 | 10.0 | 0.00 | 0.15 | 0.08 | 79 | 1012.0 |
| 20260831191600 | 83 | 236 | 2.0 | 10.0 | 0.00 | 0.15 | 0.08 | 79 | 1011.8 |
| 20260831191042 | 83 | 225 | 2.0 | 11.0 | 0.00 | 0.15 | 0.08 | 78 | 1011.9 |
| 20260831190538 | 83 | 251 | 4.0 | 11.0 | 0.00 | 0.15 | 0.08 | 78 | 1012.0 |
| 20260831190100 | 84 | 210 | 4.0 | 11.0 | 0.00 | 0.15 | 0.08 | 76 | 1011.9 |
| 20260831185537 | 84 | 212 | 5.0 | 9.0 | 0.00 | 0.17 | 0.08 | 75 | 1011.9 |
| 20260831185036 | 85 | 205 | 4.0 | 10.0 | 0.00 | 0.17 | 0.08 | 77 | 1011.8 |
| 20260831184553 | 85 | 232 | 5.0 | 10.0 | 0.00 | 0.17 | 0.08 | 77 | 1011.9 |
| 20260831184036 | 84 | 222 | 3.0 | 11.0 | 0.00 | 0.17 | 0.08 | 77 | 1011.8 |
| 20260831183536 | 84 | 226 | 5.0 | 11.0 | 0.00 | 0.17 | 0.08 | 76 | 1011.8 |
| 20260831183050 | 84 | 207 | 4.0 | 12.0 | 0.00 | 0.17 | 0.08 | 77 | 1012.0 |
| 20260831182539 | 84 | 198 | 4.0 | 15.0 | 0.00 | 0.17 | 0.08 | 75 | 1012.0 |
| 20260831182037 | 84 | 202 | 3.0 | 15.0 | 0.00 | 0.17 | 0.08 | 75 | 1012.0 |
| 20260831181601 | 84 | 229 | 5.0 | 11.0 | 0.00 | 0.17 | 0.08 | 76 | 1012.0 |
| 20260831181036 | 84 | 215 | 4.0 | 11.0 | 0.00 | 0.17 | 0.08 | 75 | 1012.0 |
| 20260831180535 | 85 | 300 | 4.0 | 10.0 | 0.00 | 0.17 | 0.08 | 74 | 1012.1 |
| 20260831180054 | 85 | 219 | 4.0 | 12.0 | 0.00 | 0.17 | 0.08 | 75 | 1011.9 |
| 20260831175536 | 84 | 139 | 3.0 | 12.0 | 0.00 | 0.17 | 0.08 | 77 | 1011.9 |
| 20260831175034 | 84 | 303 | 4.0 | 10.0 | 0.00 | 0.17 | 0.08 | 79 | 1011.9 |
| 20260831174553 | 83 | 209 | 4.0 | 10.0 | 0.00 | 0.17 | 0.08 | 81 | 1011.9 |
| 20260831174033 | 83 | 206 | 4.0 | 11.0 | 0.00 | 0.17 | 0.08 | 79 | 1012.0 |
| 20260831173538 | 82 | 202 | 4.0 | 11.0 | 0.00 | 0.17 | 0.08 | 80 | 1012.2 |
| 20260831173050 | 82 | 219 | 4.0 | 13.0 | 0.00 | 0.17 | 0.08 | 78 | 1012.1 |
| 20260831172534 | 83 | 205 | 3.0 | 13.0 | 0.00 | 0.17 | 0.08 | 80 | 1012.2 |
| 20260831172036 | 82 | 222 | 6.0 | 12.0 | 0.00 | 0.17 | 0.08 | 81 | 1012.3 |
| 20260831171558 | 81 | 180 | 5.0 | 13.0 | 0.00 | 0.17 | 0.08 | 82 | 1012.3 |
| 20260831171038 | 81 | 219 | 3.0 | 13.0 | 0.00 | 0.17 | 0.08 | 80 | 1012.4 |
| 20260831170538 | 81 | 242 | 4.0 | 12.0 | 0.00 | 0.17 | 0.08 | 80 | 1012.4 |
| 20260831170055 | 81 | 206 | 6.0 | 13.0 | 0.00 | 0.17 | 0.08 | 81 | 1012.5 |
| 20260831165537 | 81 | 233 | 3.0 | 13.0 | 0.00 | 0.17 | 0.08 | 81 | 1012.6 |
| 20260831165036 | 80 | 207 | 7.0 | 12.0 | 0.00 | 0.17 | 0.08 | 80 | 1012.6 |
| 20260831164552 | 80 | 230 | 4.0 | 13.0 | 0.00 | 0.17 | 0.08 | 81 | 1012.6 |
| 20260831164036 | 81 | 216 | 5.0 | 13.0 | 0.00 | 0.17 | 0.08 | 81 | 1012.7 |
| 20260831163536 | 81 | 223 | 5.0 | 12.0 | 0.00 | 0.17 | 0.08 | 82 | 1012.7 |
| 20260831163058 | 80 | 203 | 5.0 | 9.0 | 0.00 | 0.17 | 0.08 | 82 | 1012.7 |
| 20260831162537 | 80 | 185 | 4.0 | 14.0 | 0.00 | 0.17 | 0.08 | 82 | 1012.7 |
| 20260831162036 | 80 | 219 | 7.0 | 14.0 | 0.00 | 0.17 | 0.08 | 81 | 1012.7 |
| 20260831161552 | 80 | 192 | 7.0 | 14.0 | 0.00 | 0.17 | 0.08 | 81 | 1012.7 |
| 20260831161037 | 80 | 215 | 6.0 | 12.0 | 0.00 | 0.17 | 0.08 | 82 | 1012.6 |
| 20260831160536 | 79 | 198 | 5.0 | 13.0 | 0.00 | 0.17 | 0.08 | 83 | 1012.5 |
| 20260831160100 | 79 | 215 | 6.0 | 15.0 | 0.00 | 0.17 | 0.08 | 82 | 1012.6 |
| 20260831155538 | 79 | 211 | 4.0 | 15.0 | 0.00 | 0.17 | 0.08 | 84 | 1012.5 |
| 20260831155034 | 79 | 215 | 7.0 | 15.0 | 0.00 | 0.17 | 0.08 | 81 | 1012.7 |
| 20260831154623 | 79 | 213 | 5.0 | 15.0 | 0.00 | 0.17 | 0.08 | 82 | 1012.6 |
| 20260831154036 | 79 | 164 | 6.0 | 15.0 | 0.00 | 0.17 | 0.08 | 81 | 1012.7 |
| 20260831153536 | 78 | 215 | 4.0 | 13.0 | 0.00 | 0.17 | 0.08 | 83 | 1012.6 |
| 20260831153050 | 78 | 205 | 6.0 | 13.0 | 0.00 | 0.17 | 0.08 | 83 | 1012.8 |
| 20260831152539 | 78 | 224 | 4.0 | 9.0 | 0.00 | 0.17 | 0.08 | 83 | 1012.9 |
| 20260831152036 | 78 | 225 | 2.0 | 17.0 | 0.00 | 0.17 | 0.08 | 82 | 1012.9 |
| 20260831151604 | 78 | 205 | 3.0 | 17.0 | 0.00 | 0.17 | 0.08 | 83 | 1013.0 |
| 20260831151033 | 78 | 217 | 7.0 | 16.0 | 0.00 | 0.17 | 0.08 | 82 | 1012.8 |
| 20260831150533 | 77 | 221 | 5.0 | 12.0 | 0.00 | 0.17 | 0.08 | 84 | 1012.8 |
| 20260831150058 | 77 | 198 | 3.0 | 10.0 | 0.00 | 0.17 | 0.08 | 84 | 1012.9 |
| 20260831145538 | 77 | 220 | 4.0 | 11.0 | 0.00 | 0.17 | 0.08 | 84 | 1012.8 |
| 20260831145035 | 77 | 198 | 4.0 | 11.0 | 0.00 | 0.17 | 0.08 | 85 | 1012.8 |
| 20260831144603 | 76 | 205 | 6.0 | 11.0 | 0.00 | 0.17 | 0.08 | 85 | 1012.7 |
| 20260831144034 | 76 | 206 | 4.0 | 12.0 | 0.00 | 0.17 | 0.08 | 86 | 1012.7 |
| 20260831143535 | 76 | 207 | 5.0 | 12.0 | 0.00 | 0.17 | 0.08 | 86 | 1012.7 |
| 20260831143056 | 75 | 206 | 5.0 | 11.0 | 0.00 | 0.17 | 0.08 | 87 | 1012.6 |
| 20260831142534 | 75 | 218 | 6.0 | 11.0 | 0.00 | 0.17 | 0.08 | 86 | 1012.6 |
| 20260831142035 | 75 | 196 | 5.0 | 10.0 | 0.00 | 0.17 | 0.08 | 87 | 1012.7 |
| 20260831141601 | 74 | 231 | 4.0 | 15.0 | 0.00 | 0.17 | 0.08 | 87 | 1012.7 |
| 20260831141033 | 74 | 192 | 5.0 | 15.0 | 0.00 | 0.17 | 0.08 | 87 | 1012.7 |
| 20260831140535 | 74 | 218 | 4.0 | 12.0 | 0.00 | 0.17 | 0.08 | 88 | 1012.7 |
| 20260831140057 | 73 | 138 | 6.0 | 12.0 | 0.00 | 0.17 | 0.08 | 87 | 1012.7 |
| 20260831135536 | 73 | 193 | 5.0 | 16.0 | 0.00 | 0.17 | 0.08 | 88 | 1012.7 |
| 20260831135034 | 73 | 166 | 4.0 | 16.0 | 0.00 | 0.17 | 0.08 | 88 | 1012.8 |
| 20260831134556 | 73 | 195 | 5.0 | 11.0 | 0.00 | 0.17 | 0.08 | 89 | 1012.5 |
| 20260831134033 | 73 | 199 | 4.0 | 12.0 | 0.00 | 0.17 | 0.08 | 89 | 1012.6 |
| 20260831133534 | 73 | 157 | 5.0 | 12.0 | 0.00 | 0.17 | 0.08 | 89 | 1012.7 |
| 20260831133055 | 73 | 220 | 5.0 | 14.0 | 0.00 | 0.17 | 0.08 | 89 | 1012.5 |
| 20260831132536 | 72 | 173 | 5.0 | 14.0 | 0.00 | 0.17 | 0.08 | 89 | 1012.6 |
| 20260831132036 | 72 | 189 | 4.0 | 9.0 | 0.00 | 0.17 | 0.08 | 90 | 1012.5 |
| 20260831131555 | 72 | 167 | 3.0 | 10.0 | 0.00 | 0.17 | 0.08 | 90 | 1012.6 |
| 20260831131034 | 72 | 157 | 4.0 | 10.0 | 0.00 | 0.17 | 0.08 | 90 | 1012.4 |
| 20260831130535 | 72 | 180 | 4.0 | 10.0 | 0.00 | 0.17 | 0.08 | 91 | 1012.5 |
| 20260831130110 | 71 | 190 | 4.0 | 10.0 | 0.00 | 0.17 | 0.08 | 92 | 1012.4 |
| 20260831125533 | 71 | 176 | 3.0 | 10.0 | 0.00 | 0.17 | 0.08 | 92 | 1012.5 |
| 20260831125036 | 71 | 171 | 5.0 | 10.0 | 0.00 | 0.17 | 0.08 | 92 | 1012.4 |
| 20260831124556 | 71 | 208 | 3.0 | 12.0 | 0.00 | 0.17 | 0.08 | 93 | 1012.6 |
| 20260831124036 | 71 | 151 | 5.0 | 12.0 | 0.00 | 0.17 | 0.08 | 93 | 1012.5 |
| 20260831123534 | 70 | 196 | 4.0 | 11.0 | 0.00 | 0.17 | 0.08 | 94 | 1012.7 |
| 20260831123054 | 70 | 186 | 1.0 | 10.0 | 0.00 | 0.17 | 0.08 | 94 | 1012.7 |
| 20260831122537 | 70 | 205 | 4.0 | 10.0 | 0.00 | 0.17 | 0.08 | 95 | 1012.7 |
| 20260831122036 | 70 | 178 | 2.0 | 9.0 | 0.00 | 0.17 | 0.08 | 96 | 1012.7 |
| 20260831121604 | 70 | 180 | 3.0 | 8.0 | 0.00 | 0.17 | 0.08 | 96 | 1012.6 |
| 20260831121035 | 69 | 0 | 3.0 | 8.0 | 0.00 | 0.17 | 0.08 | 97 | 1012.6 |
| 20260831120532 | 70 | 180 | 2.0 | 7.0 | 0.00 | 0.17 | 0.08 | 97 | 1012.5 |
| 20260831120057 | 69 | 176 | 2.0 | 7.0 | 0.00 | 0.17 | 0.08 | 98 | 1012.7 |
| 20260831115535 | 69 | 173 | 2.0 | 9.0 | 0.00 | 0.17 | 0.08 | 98 | 1012.5 |
| 20260831115035 | 69 | 168 | 3.0 | 12.0 | 0.00 | 0.17 | 0.08 | 98 | 1012.7 |
| 20260831114555 | 69 | 173 | 2.0 | 12.0 | 0.00 | 0.17 | 0.08 | 98 | 1012.6 |
| 20260831114033 | 69 | 169 | 4.0 | 8.0 | 0.00 | 0.17 | 0.08 | 98 | 1012.6 |
| 20260831113533 | 69 | 150 | 3.0 | 8.0 | 0.00 | 0.17 | 0.08 | 99 | 1012.7 |
| 20260831113052 | 69 | 170 | 3.0 | 7.0 | 0.01 | 0.17 | 0.08 | 99 | 1012.7 |
| 20260831112536 | 69 | 173 | 2.0 | 7.0 | 0.01 | 0.17 | 0.08 | 99 | 1012.7 |
| 20260831112036 | 69 | 163 | 1.0 | 5.0 | 0.01 | 0.17 | 0.08 | 99 | 1012.8 |
| 20260831111602 | 69 | 168 | 2.0 | 5.0 | 0.01 | 0.17 | 0.08 | 100 | 1012.7 |
| 20260831111035 | 69 | 0 | 2.0 | 5.0 | 0.02 | 0.17 | 0.08 | 100 | 1012.7 |
| 20260831110536 | 69 | 133 | 0.0 | 2.0 | 0.06 | 0.17 | 0.08 | 100 | 1012.7 |
| 20260831110100 | 69 | 107 | 0.0 | 3.0 | 0.06 | 0.17 | 0.08 | 100 | 1012.9 |
| 20260831105539 | 69 | 0 | 0.0 | 4.0 | 0.06 | 0.17 | 0.08 | 100 | 1012.9 |
| 20260831105037 | 69 | 104 | 0.0 | 4.0 | 0.06 | 0.17 | 0.08 | 100 | 1012.8 |
| 20260831104551 | 69 | 0 | 0.0 | 4.0 | 0.07 | 0.17 | 0.08 | 100 | 1012.8 |
| 20260831104034 | 69 | 0 | 0.0 | 4.0 | 0.08 | 0.17 | 0.08 | 100 | 1013.0 |
| 20260831103536 | 69 | 104 | 0.0 | 4.0 | 0.08 | 0.17 | 0.08 | 100 | 1013.0 |
| 20260831103058 | 69 | 0 | 0.0 | 4.0 | 0.07 | 0.16 | 0.07 | 100 | 1013.1 |
| 20260831102535 | 69 | 59 | 2.0 | 4.0 | 0.07 | 0.16 | 0.07 | 99 | 1013.1 |
| 20260831102037 | 69 | 0 | 0.0 | 3.0 | 0.07 | 0.16 | 0.07 | 99 | 1013.2 |
| 20260831101555 | 69 | 156 | 0.0 | 2.0 | 0.07 | 0.16 | 0.07 | 99 | 1013.0 |